Location: Newark
(42.7133°N, 87.7910°W)
Time: 14:45:46
(UTC+00:00)

Vanguard 1 - Pass Details

Date: 27 September 2019
Orbit: 653 x 3830 km, 34.2° (Epoch: 18 October)

Event Time Altitude Azimuth Distance (km) Brightness Sun altitude
Rises 02:04:38 0° 163° (SSE) 6,390 - -26.4°
Reaches altitude 10° 02:16:06 10° 129° (SE) 6,298 - -28.3°
Maximum altitude 02:18:45 10° 121° (ESE) 6,422 - -28.7°
Drops below altitude 10° 02:21:31 10° 113° (ESE) 6,598 - -29.2°
Sets 02:35:38 0° 82° (E) 7,975 - -31.4°
